Location: La Mézière
(48.2183°N, 1.7551°W)
Time: 11:35:58
(UTC+00:00)

Daily predictions for brighter satellites

Satellite Brightness Start Highest point End
(mag) Time Altitude Azimuth Time Altitude Azimuth Time Altitude Azimuth
ATLAS 2AS CENTAUR R/B 4.3 18:42:21 10° W 18:48:54 36° NNW 18:55:15 10° NE
Landsat 7 4.1 18:45:05 10° S 18:49:46 74° WSW 18:54:30 10° NNW
Cosmos 1842 4.0 18:48:46 10° NNE 18:51:58 28° ENE 18:55:07 10° SE
USA 59 Rocket 0.0 18:49:23 10° NW 18:53:08 70° NE 18:58:16 10° SE
Cosmos 1536 4.2 18:51:28 10° SE 18:54:02 17° E 18:56:37 10° NE
Cosmos 2061 Rocket 4.1 18:48:39 10° S 18:55:04 84° E 19:01:33 10° N
COSMOS 2428 2.9 18:49:37 10° S 18:55:08 54° ESE 19:00:43 10° NE
Cosmos 1707 3.6 18:52:44 10° NNE 18:55:45 25° ENE 18:58:46 10° SE
Cosmos 2292 Rocket 4.5 18:54:28 10° NNW 18:57:59 41° W 19:00:57 10° SSW
Cosmos 1818 3.7 18:54:40 10° SW 19:00:08 86° NW 19:05:40 10° NE
Okean O Rocket 3.1 18:58:18 10° ESE 19:01:27 20° ENE 19:04:38 10° NNE
Cosmos 2016 Rocket 4.5 18:55:38 10° SSW 19:01:40 66° WNW 19:07:47 10° N
Cosmos 1626 4.2 19:01:02 10° NW 19:03:34 25° W 19:06:06 10° SSW
Meteor 2-4 Rocket 4.4 19:00:18 10° NNW 19:06:11 64° W 19:11:57 10° S
Cosmos 2278 Rocket 2.4 19:00:39 10° NNW 19:06:14 55° ENE 19:11:47 10° SE
USA 306 2.1 19:03:51 10° WSW 19:06:51 89° NNW 19:10:26 10° ENE
DMSP B5D1-3 4.4 19:03:13 10° NNE 19:08:19 74° ESE 19:13:23 10° S
Tsikada Rocket 4.4 19:02:36 10° NNW 19:08:52 72° W 19:15:11 10° S
CZ-4B DEB 4.2 19:03:41 10° SSE 19:09:08 67° ENE 19:14:36 10° N
CZ-4 R/B 1.5 19:06:26 10° SSE 19:10:07 49° ENE 19:13:54 10° N
NOSS 2-1 (C) 3.6 19:09:43 10° NW 19:13:28 80° SW 19:18:37 10° SE
CZ-4B R/B 3.6 19:08:35 10° SE 19:13:42 43° ENE 19:18:46 10° N
Cosmos 1766 Rocket 3.5 19:09:38 10° S 19:13:56 62° E 19:18:17 10° NNE
TSX-5 4.2 19:12:28 10° NW 19:15:29 48° WSW 19:18:40 10° SSE
Resurs 01 Rocket 2.1 19:11:33 10° SE 19:15:42 42° ENE 19:19:54 10° N
USA 290 2.3 19:13:32 10° NNW 19:16:49 63° ENE 19:20:05 10° SSE
Helios 1A 3.0 19:12:59 10° NNE 19:17:00 54° ESE 19:20:58 10° S
YAOGAN 1 4.0 19:14:03 10° S 19:18:06 41° W 19:22:11 10° NNW
ADEOS 3.6 19:13:04 10° SSE 19:18:18 87° WSW 19:23:34 10° NNW
GEOS 3 Rocket 3.6 19:14:02 10° SE 19:19:15 77° NE 19:24:27 10° NW
USA 186 2.2 19:17:55 10° SE 19:20:57 41° ENE 19:24:02 10° N
CZ-4B R/B 3.5 19:16:24 10° SSE 19:21:08 81° WSW 19:25:59 10° NNW
Cosmos 1814 Rocket 4.0 19:16:14 10° SSW 19:21:30 74° ESE 19:26:45 10° NNE
Cosmos 2360 Rocket 4.2 19:16:39 10° WSW 19:21:37 31° NW 19:26:36 10° NNE
PAYLOAD B 4.3 19:16:43 10° SSE 19:22:16 67° ENE 19:27:51 10° N
Cosmos 1743 3.5 19:19:00 10° SSW 19:22:28 51° WNW 19:25:58 10° N
KORONAS-FOTON 3.6 19:19:14 10° N 19:22:56 70° ENE 19:26:36 10° SSE
SPOT 5 4.2 19:22:15 14° E 19:24:28 19° ENE 19:27:35 10° NNE
Okean-O 4.1 19:23:05 14° E 19:25:14 20° ENE 19:28:25 10° NNE
SKYMED 3 4.4 19:23:46 10° NNE 19:27:55 85° ESE 19:32:02 10° SSW
Cosmos 1408 Rocket 4.4 19:24:25 10° SSE 19:28:09 28° E 19:31:54 10° NNE
USA 267 4.2 19:22:27 10° ENE 19:28:29 42° N 19:34:33 10° WNW
ISS -3.2 19:25:32 10° SW 19:28:40 38° SE 19:30:43 18° E
SPOT 1/Viking Rocket 3.8 19:24:17 10° S 19:29:26 74° WSW 19:34:38 10° NNW
CZ-4B R/B 2.7 19:26:19 10° SSE 19:30:10 81° ENE 19:34:15 10° NNW
Kosmos-1783 3.7 19:29:18 10° WSW 19:31:27 34° NW 19:33:03 10° NNE
SL-08 R/B 3.5 19:28:40 10° NNE 19:33:37 81° WNW 19:38:31 10° SSW
Cosmos 2237 Rocket 2.4 19:28:53 10° S 19:34:11 45° ESE 19:39:31 10° NE
Aureole 3 Rocket 4.5 19:31:14 10° SSE 19:37:04 32° E 19:41:31 10° NNE
CSL-04 Rocket 3.7 19:32:11 10° SSE 19:37:26 59° ENE 19:42:39 10° N
Cosmos 2219 Rocket 3.7 19:33:36 10° WSW 19:38:54 39° NW 19:44:13 10° NNE
Cosmos 1674 3.7 19:37:30 10° NNW 19:40:41 41° W 19:43:48 10° SSW
Cosmos 1328 Rocket 4.2 19:37:00 10° NNW 19:41:14 58° W 19:45:26 10° S
Cosmos 1356 Rocket 3.4 19:38:43 10° NNW 19:42:56 89° ENE 19:47:06 10° S
Meteor 1-14 Rocket 4.1 19:37:31 10° S 19:43:03 88° E 19:48:38 10° NNE
Aureole 1 4.2 19:40:51 10° NNW 19:43:57 83° ENE 19:46:29 18° SSE
Lacrosse 4 Rocket 3.8 19:41:06 10° WNW 19:44:30 23° WSW 19:47:52 10° SSW
SJ-6B 3.9 19:42:25 10° S 19:45:52 42° W 19:49:18 10° NNW
Meteor 1-4 Rocket 3.1 19:43:24 10° NNW 19:45:56 40° W 19:48:27 10° SSW
Meteor 1-11 Rocket 3.8 19:40:43 10° SSE 19:46:07 50° E 19:51:28 10° NNE
CARTOSAT-1 3.5 19:46:25 10° SSE 19:50:40 89° WSW 19:54:56 10° NNW
ATLAS CENTAUR R/B 1.3 19:47:43 10° SSW 19:51:04 41° ESE 19:54:36 10° NE
Cosmos 158 Rocket 4.0 19:46:35 10° S 19:51:11 45° ESE 19:55:49 10° NE
Cosmos 1805 Rocket 4.2 19:52:47 26° SE 19:54:13 33° E 19:58:07 10° NNE
Cosmos 1733 2.7 19:55:01 10° S 19:58:27 79° E 20:01:54 10° NNE
USA 276 2.3 19:57:37 10° W 20:00:21 43° SSW 20:00:38 41° S
In-Cosmos 22 4.2 19:55:05 10° N 20:00:50 85° ENE 20:06:00 12° SSE
Cosmos 2369 Rocket 3.5 19:58:13 10° N 20:02:59 26° NE 20:05:12 21° ENE
Cosmos 1980 3.6 19:57:59 10° SSW 20:03:39 79° ESE 20:09:22 10° NNE
SWARM A 4.2 20:03:48 22° S 20:05:58 80° E 20:09:29 10° N
Sich 1 3.1 20:07:33 30° SSE 20:09:20 50° E 20:13:31 10° NNE
BlueWalker 3 4.1 20:07:39 10° W 20:10:14 18° SW 20:12:13 12° S
Cosmos 1943 Rocket 2.2 20:04:52 10° NNW 20:10:24 77° WSW 20:14:05 22° SSE
NOSS 0 Rocket 4.2 20:05:58 10° SW 20:12:12 74° WNW 20:18:29 10° NNE
CSL-04 Debris 4.4 20:07:54 10° S 20:13:21 69° WSW 20:18:50 10° NNW
Cosmos 2298 Rocket 4.1 20:09:00 10° NNW 20:14:17 63° ENE 20:16:27 35° SE
Terra 2.8 20:13:52 28° ENE 20:14:24 28° ENE 20:18:24 10° N
ACS3 Solar Sail 1.8 20:09:36 16° SSE 20:14:54 82° ENE 20:21:21 10° N
ERS-1 Rocket 3.7 20:14:03 31° E 20:15:07 35° ENE 20:19:40 10° N
Nadezhda 4 Rocket 4.0 20:09:13 10° N 20:15:31 84° W 20:21:40 11° S
Cosmos 2195 Rocket 4.4 20:09:33 10° N 20:15:39 65° ENE 20:19:12 26° SSE
Cosmos 2150 Rocket 4.0 20:10:50 10° NNW 20:15:59 64° ENE 20:17:56 37° SE
Cosmos 1570 Rocket 3.9 20:11:07 10° SSW 20:16:23 84° ESE 20:21:41 10° NNE
USA 32 4.0 20:11:40 10° N 20:16:54 64° E 20:19:24 31° SSE
Cosmos 1975 4.0 20:18:58 26° NE 20:18:58 26° NE 20:21:11 10° NNE
Cosmos 1805 3.0 20:21:37 63° E 20:21:37 63° E 20:25:14 10° NNE
Cosmos 1315 Rocket 2.8 20:18:59 10° NNW 20:22:57 76° W 20:24:27 37° S
Cosmos 2026 Rocket 4.0 20:16:47 10° N 20:22:59 63° ENE 20:25:51 32° SSE
Cosmos 1092 Rocket 4.0 20:17:11 10° N 20:23:29 62° ENE 20:26:28 32° SSE
Ariane Rocket 4.1 20:24:21 27° ENE 20:24:46 27° ENE 20:29:00 10° N
Cosmos 836 Rocket 4.4 20:21:40 10° SSW 20:26:55 70° ESE 20:32:12 10° NNE
Cosmos 1536 4.1 20:26:02 10° SW 20:29:36 38° WNW 20:33:14 10° N
Cosmos 1125 Rocket 4.2 20:27:23 10° NNW 20:32:25 51° WSW 20:35:39 21° S
SL-16 R/B 2.6 20:35:16 40° E 20:35:16 40° E 20:39:54 10° NE
Okean O Rocket 2.2 20:35:02 26° SSW 20:37:20 55° W 20:41:42 10° NNW
Cosmos 1634 Rocket 4.0 20:36:32 36° SSE 20:38:57 58° E 20:45:09 10° NNE
USA 306 3.8 20:36:37 10° WNW 20:39:46 35° N 20:40:35 30° NNE
Cosmos 1656 Rocket 3.9 20:34:39 10° NNW 20:40:14 54° ENE 20:41:19 47° E
SL-14 R/B 3.1 20:36:49 10° N 20:40:36 86° W 20:40:36 86° W
USA 59 Rocket 2.6 20:39:35 10° WNW 20:42:32 18° WSW 20:46:06 10° SSW
PSLV R/B 4.0 20:44:13 55° WSW 20:44:23 56° W 20:47:51 10° NNW
CZ-4 R/B 4.1 20:42:39 10° SW 20:44:57 15° W 20:47:17 10° NW
IRS-1C Rocket 4.1 20:45:02 55° ESE 20:45:53 64° ENE 20:51:07 10° N
Cosmos 773 Rocket 3.9 20:45:40 49° SSE 20:46:57 67° ESE 20:52:13 10° NNE
Cosmos 2278 Rocket 3.9 20:45:17 10° NW 20:49:59 27° WSW 20:54:32 11° SSW
Cosmos 1500 Rocket 4.1 20:47:41 19° SSW 20:50:39 56° WNW 20:54:57 10° N
Resurs 01 Rocket 3.8 20:48:46 10° SW 20:52:17 23° W 20:55:50 10° NW
STPSAT 2 (USA 217) 4.5 20:49:20 10° NNW 20:53:52 80° NE 20:53:52 80° NE
Cosmos 2228 Rocket 3.2 20:51:10 10° N 20:55:20 64° NE 20:55:20 64° NE
Cosmos 2034 Rocket 4.4 20:50:31 10° SSW 20:56:38 60° WNW 21:02:45 10° N
Cosmos 1743 Rocket 3.8 20:56:20 47° SW 20:57:21 64° W 21:01:41 10° N
MetOp-B 4.2 20:56:15 48° S 20:57:46 75° WSW 21:03:09 10° NNW
CRYOSAT 2 4.4 20:55:16 10° N 21:00:11 78° W 21:01:11 56° SSW
SPOT 3 Rocket 3.9 21:00:55 49° ENE 21:00:55 49° ENE 21:05:38 10° N
Okean-O 3.2 21:00:31 47° SW 21:01:14 53° W 21:05:35 10° NNW
SPOT 5 3.1 21:01:23 51° SW 21:02:07 59° WSW 21:06:33 10° NNW
NOSS 3-3 (C) 3.8 20:59:53 10° SW 21:05:19 79° NW 21:11:49 10° NE
ISS -1.7 21:02:04 10° W 21:03:42 26° W 21:03:42 26° W
USA 267 3.7 21:08:22 35° ENE 21:10:49 53° NNE 21:17:07 10° NW
Cosmos 2237 Rocket 3.7 21:13:13 10° WSW 21:18:22 36° NW 21:23:32 10° NNE
NOSS 3-3 (A) 4.2 21:14:09 10° SW 21:19:35 63° NW 21:26:04 10° NE
Cosmos 2279 Rocket 3.8 21:19:59 74° SE 21:20:27 79° E 21:26:42 10° NNE
Cosmos 1607 3.9 21:17:12 10° SW 21:23:42 89° ESE 21:30:11 10° NE
MOS 1 Rocket 4.1 21:24:48 46° SW 21:25:30 50° W 21:30:39 10° NNW
ATLAS CENTAUR R/B 3.3 21:25:32 10° W 21:28:36 25° NW 21:29:51 21° N
Cosmos 2297 3.7 21:23:26 10° NNW 21:28:59 78° W 21:28:59 78° W
Spot 2 Rocket 3.7 21:31:06 68° NW 21:31:06 68° NW 21:35:38 10° NNW
NOSS 3-4 (A) 3.7 21:37:08 10° NW 21:43:58 78° SW 21:44:37 72° S
NOSS 3-4 (C) 3.7 21:37:14 10° NW 21:44:05 78° SW 21:44:43 73° S
Cosmos 2369 Rocket 2.5 21:41:50 10° NNW 21:46:58 65° WNW 21:46:58 65° WNW
Terra 3.1 21:52:34 37° WNW 21:52:34 37° WNW 21:56:16 10° NNW
ERS-1 Rocket 4.2 21:53:59 35° W 21:53:59 35° W 21:58:27 10° NNW
ACS3 Solar Sail 4.0 21:55:10 10° SW 21:59:40 20° W 22:04:12 10° NW
Ariane Rocket 4.1 22:04:30 41° WNW 22:04:30 41° WNW 22:08:22 10° NNW
Cosmos 2266 Rocket 4.2 22:04:05 10° NNW 22:09:40 68° NW 22:09:40 68° NW
SL-16 R/B 3.4 22:17:00 31° W 22:18:46 38° NW 22:24:03 10° NNE
ATLAS 2AS CENTAUR R/B 4.0 22:29:01 10° NW 22:35:04 31° NNE 22:36:30 28° NE
USA 267 3.9 22:55:43 47° WNW 22:55:43 47° WNW 23:00:13 10° WNW
Cosmos 2344 3.9 23:19:07 10° NW 23:27:14 81° NE 23:27:14 81° NE
Cosmos 1980 Rocket 4.0 23:49:00 10° NNW 23:52:13 26° NNE 23:52:13 26° NNE
